WN8IZV Weather Reports


Display with metric or nautical units.
time (UTC)temp
F
wind
direction
speed
MPH
gust
MPH
rain 1hr
in
rain 24hr
in
rain mn
in
humidity
%
barometer
mb
20260510233011 59 247 2.0 7.0 0.00 0.00 0.00 62 1018.8
20260510231509 61 297 2.0 8.0 0.00 0.00 0.00 63 1018.7
20260510230008 62 330 3.0 6.0 0.00 0.00 0.00 63 1018.6
20260510224505 61 327 1.0 10.0 0.00 0.00 0.00 63 1018.5
20260510223001 61 316 3.0 7.0 0.00 0.00 0.00 63 1018.5
20260510221601 61 305 3.0 7.0 0.00 0.00 0.00 63 1018.3
20260510220057 62 224 1.0 7.0 0.00 0.00 0.00 63 1018.3
20260510214554 63 232 1.0 7.0 0.00 0.00 0.00 64 1018.1
20260510213053 64 307 2.0 6.0 0.00 0.00 0.00 64 1017.9
20260510211548 63 287 3.0 7.0 0.00 0.00 0.00 64 1017.8
20260510210045 62 257 3.0 12.0 0.00 0.00 0.00 64 1017.7
20260510204542 62 297 1.0 5.0 0.00 0.00 0.00 64 1017.7
20260510203040 61 18 2.0 8.0 0.00 0.00 0.00 64 1017.8
20260510201538 61 333 2.0 8.0 0.00 0.00 0.00 65 1018.0
20260510200034 62 266 2.0 8.0 0.00 0.00 0.00 65 1018.1
20260510194531 62 207 2.0 9.0 0.00 0.06 0.00 65 1018.3
20260510193030 61 270 3.0 9.0 0.00 0.06 0.00 65 1018.3
20260510191527 62 285 1.0 8.0 0.00 0.06 0.00 65 1018.3
20260510190024 62 321 1.0 8.0 0.00 0.06 0.00 66 1018.3
20260510184520 61 258 2.0 10.0 0.00 0.06 0.00 66 1018.2
20260510183017 60 296 2.0 7.0 0.00 0.06 0.00 66 1018.1
20260510181512 59 30 2.0 6.0 0.00 0.06 0.00 66 1017.8
20260510180013 60 289 2.0 10.0 0.00 0.06 0.00 66 1017.8
20260510174508 60 7 2.0 6.0 0.00 0.06 0.00 66 1017.8
20260510173003 60 302 2.0 7.0 0.00 0.06 0.00 67 1017.8
20260510171500 59 274 3.0 7.0 0.00 0.06 0.00 67 1018.1
20260510170059 59 349 3.0 10.0 0.00 0.06 0.00 67 1018.1
20260510164556 59 333 3.0 7.0 0.00 0.06 0.00 67 1018.2
20260510163055 58 281 2.0 8.0 0.00 0.06 0.00 68 1018.1
20260510161547 59 167 2.0 9.0 0.00 0.06 0.00 68 1018.0
20260510160045 58 13 2.0 6.0 0.00 0.06 0.00 68 1017.8
20260510154542 57 288 2.0 8.0 0.00 0.06 0.00 68 1017.7
20260510153036 57 349 2.0 7.0 0.00 0.06 0.00 69 1017.6
20260510151537 56 255 2.0 7.0 0.00 0.06 0.00 69 1017.5
20260510150031 55 240 1.0 4.0 0.00 0.06 0.00 69 1017.4
20260510144535 55 342 1.0 5.0 0.00 0.06 0.00 69 1017.3
20260510143026 54 178 1.0 4.0 0.00 0.06 0.00 69 1017.2
20260510141524 52 15 0.0 3.0 0.00 0.06 0.00 69 1017.2
20260510140017 51 326 1.0 7.0 0.00 0.06 0.00 70 1017.2
20260510134516 50 7 1.0 7.0 0.00 0.06 0.00 70 1017.1
20260510133018 50 344 1.0 5.0 0.00 0.06 0.00 70 1016.9
20260510131517 49 352 2.0 7.0 0.00 0.06 0.00 70 1016.7
20260510130014 49 60 1.0 5.0 0.00 0.06 0.00 70 1016.7
20260510124503 48 21 1.0 4.0 0.00 0.06 0.00 71 1016.4
20260510123002 47 38 2.0 7.0 0.00 0.06 0.00 71 1016.4
20260510121600 46 12 2.0 6.0 0.00 0.06 0.00 71 1016.4
20260510120058 45 7 0.0 2.0 0.00 0.06 0.00 71 1016.2
20260510114553 43 351 0.0 3.0 0.00 0.06 0.00 70 1015.8
20260510113049 42 7 0.0 4.0 0.00 0.06 0.00 70 1015.6
20260510111555 39 341 0.0 1.0 0.00 0.06 0.00 69 1015.3
20260510110044 38 8 0.0 0.0 0.00 0.06 0.00 68 1015.2
20260510104546 37 8 0.0 0.0 0.00 0.06 0.00 68 1015.0
20260510103037 36 8 0.0 0.0 0.00 0.06 0.00 68 1014.8
20260510101533 37 8 0.0 0.0 0.00 0.06 0.00 68 1014.6
20260510100028 38 8 0.0 0.0 0.00 0.06 0.00 68 1014.4
20260510094530 39 8 0.0 0.0 0.00 0.06 0.00 67 1014.5
20260510093021 38 8 0.0 0.0 0.00 0.06 0.00 67 1014.3
20260510091521 38 10 0.0 0.0 0.00 0.06 0.00 67 1014.0
20260510090012 40 10 0.0 0.0 0.00 0.06 0.00 67 1013.6
20260510084504 41 10 0.0 0.0 0.00 0.06 0.00 67 1013.2
20260510083111 42 10 0.0 1.0 0.00 0.06 0.00 67 1013.0
20260510081625 42 14 0.0 1.0 0.00 0.06 0.00 67 1012.8
20260510080051 43 11 0.0 1.0 0.00 0.06 0.00 67 1012.5
20260510074545 44 1 0.0 3.0 0.00 0.06 0.00 67 1012.2
20260510073039 45 23 0.0 1.0 0.00 0.06 0.00 67 1011.9
20260510071535 45 53 1.0 4.0 0.00 0.06 0.00 67 1011.6
20260510070030 46 93 0.0 1.0 0.00 0.06 0.00 67 1011.4
20260510064527 47 57 0.0 3.0 0.00 0.06 0.00 67 1011.3
20260510063020 48 63 0.0 2.0 0.00 0.06 0.00 67 1011.2
20260510061525 49 5 0.0 1.0 0.00 0.06 0.00 67 1010.9
20260510060030 49 8 0.0 2.0 0.00 0.06 0.00 67 1010.7
20260510054507 50 13 0.0 1.0 0.00 0.06 0.00 67 1010.5
20260510053002 51 14 0.0 3.0 0.00 0.06 0.00 67 1010.2
20260510051652 51 359 0.0 2.0 0.00 0.06 0.00 67 1010.1
20260510050054 52 4 0.0 3.0 0.00 0.06 0.00 67 1009.9
20260510044548 53 15 1.0 6.0 0.00 0.06 0.00 67 1009.6
20260510043110 53 6 0.0 5.0 0.00 0.06 0.00 67 1009.4
20260510041541 54 31 2.0 6.0 0.00 0.06 0.00 67 1009.1
20260510040034 54 294 2.0 7.0 0.00 0.06 0.00 67 1008.9
20260510034531 55 38 3.0 9.0 0.00 0.06 0.06 67 1008.6
20260510033028 56 53 4.0 10.0 0.00 0.06 0.06 68 1008.3
20260510031536 57 326 4.0 12.0 0.00 0.06 0.06 68 1008.1
20260510030021 59 346 5.0 11.0 0.00 0.06 0.06 68 1007.8
20260510024519 60 296 4.0 9.0 0.00 0.06 0.06 68 1007.6
20260510023033 60 319 5.0 12.0 0.00 0.06 0.06 68 1007.1
20260510021516 60 288 0.0 2.0 0.00 0.06 0.06 68 1006.4
20260510020013 61 335 0.0 0.0 0.00 0.06 0.06 68 1005.9
20260510014510 61 343 0.0 2.0 0.00 0.06 0.06 68 1005.6
20260510013012 62 313 0.0 1.0 0.00 0.06 0.06 69 1005.2
20260510011512 62 329 0.0 2.0 0.00 0.06 0.06 69 1004.8
20260510010011 63 276 0.0 2.0 0.00 0.06 0.06 69 1004.6
20260510004504 64 316 0.0 3.0 0.00 0.06 0.06 69 1004.4
20260510003107 65 304 1.0 4.0 0.00 0.06 0.06 69 1004.1
20260510001557 66 257 2.0 7.0 0.00 0.06 0.06 70 1003.9
20260510000055 67 300 1.0 6.0 0.00 0.06 0.06 70 1003.6
20260509234553 68 305 2.0 7.0 0.00 0.06 0.06 70 1003.6